Weather Service Report


634 
ASUS44 KLUB 300310
RWRTX 
WEST TEXAS WEATHER ROUNDUP
NATIONAL WEATHER SERVICE LUBBOCK TX
1000 PM CDT SAT APR 29 2017

NOTE: "FAIR" INDICATES FEW OR NO CLOUDS BELOW 12,000 FEET WITH NO
SIGNIFICANT WEATHER AND/OR OBSTRUCTIONS TO VISIBILITY.

TXZ004-006>008-010-012-014-016-OKZ002-300400-
TEXAS PANHANDLE/OKLAHOMA PANHANDLE
  
CITY           SKY/WX    TMP DP  RH WIND       PRES   REMARKS
AMARILLO       LGT SNOW  33  32  96 NW20G29   29.91R VSB 3/4 WCI  21  
BORGER         LGT RAIN  35  33  92 NW15G24   29.90R WCI  25          
CANADIAN       DRIZZLE   40  40  97 N14       29.86R WCI  33          
DALHART        LGT SNOW  34  33  96 N21G28    29.96R VSB 1   WCI  22  
DUMAS          CLOUDY    32  31  96 N28G35    29.95R WCI  18          
GUYMON         LGT SNOW  34  32  92 N32G45    29.83F FOG     WCI  20  
HEREFORD       LGT SNOW  34  34  98 N24G38    29.96R WCI  22          
PAMPA          RAIN      35  34  96 NW18G25   29.89R WCI  24          
PERRYTON       CLOUDY    36  35  96 N20G28    29.82R WCI  25          
$$

TXZ026-029-035-045-048-300400-
SOUTHERN PANHANDLE/SOUTH PLAINS/ROLLING PLAINS
  
CITY           SKY/WX    TMP DP  RH WIND       PRES   REMARKS
CHILDRESS      LGT RAIN  44  40  85 W21       29.88R                  
SEMINOLE       CLOUDY    40  34  78 NW17G26   30.03R WCI  31          
LUBBOCK        CLOUDY    37  34  89 NW24G32   29.91R WCI  26          
PLAINVIEW      CLOUDY    34  33  97 NW22G29   29.89F WCI  22          
SNYDER         MOCLDY   N/A N/A N/A NW15G24   29.92R                  
$$

TXZ052-054-060>062-072-078-127-140-154-169-300400-
PERMIAN BASIN/CONCHO VALLEY/BIG COUNTRY/EDWARDS PLATEAU  
  
CITY           SKY/WX    TMP DP  RH WIND       PRES   REMARKS
ABILENE        CLOUDY    53  42  66 NW15      29.84R                  
BIG SPRING     CLOUDY    46  38  75 NW15G25   29.98R                  
BROWNWOOD      CLOUDY    57  43  58 NW5       29.84R                  
JUNCTION       CLOUDY    63  35  35 W10G24    29.88R                  
MIDLAND        MOCLDY    46  37  71 NW21G30   29.97R                  
ODESSA         PTCLDY    46  38  73 N18G26    29.97R                  
SAN ANGELO     CLOUDY    58  35  42 W20G30    29.87R                  
SONORA         PTCLDY    59  32  36 NW9G16    29.94R                  
SWEETWATER     CLOUDY    49  47  94 NW7       29.89R                  
WINK           CLEAR     45  37  73 N20G26    29.99R                  
$$

TXZ055-058-074-075-080-082-300400-
FAR WEST/SOUTHWEST MOUNTAINS/TRANS PECOS
  
CITY           SKY/WX    TMP DP  RH WIND       PRES   REMARKS
ALPINE         CLOUDY    48  31  50 NE10      30.04R                  
DRYDEN           N/A     61  30  31 NW9       29.91R                  
EL PASO        PTCLDY    52  28  39 N15       30.00R                  
FORT STOCKTON  PTCLDY    47  36  65 NW16      30.03R                  
GUADALUPE PASS CLEAR     38  32  79 E20       30.01R WCI  28          
MARFA          CLOUDY    48  24  39 N16       29.99R                  
PECOS          CLEAR     46  35  64 N17G24    30.02R                  
PRESIDIO       CLOUDY    60  32  35 N10       29.97R                  
$$

TXZ014-016-019-021>030-083-300400
TEXAS TECH WEST TEXAS MESONET/TEXAS PANHANDLE/NORTHERN SOUTH PLAINS
  
CITY           SKY/WX    TMP DP  RH WIND       PRES   REMARKS
ABERNATHY 5ENE   N/A     36  34  94 NW18      29.92S WCI  26          
AMARILLO 9NNE    N/A     32  32 100 NW16      29.93S WCI  21          
AMARILLO 7SSE    N/A     32  31  97 NW18      29.93F WCI  21          
AMHERST 1NE      N/A     35  33  94 NW21      29.95R WCI  24          
BOOTLEG 11WNW    N/A     31  30  97 NW25      29.99R WCI  17          
CANADIAN 6E      N/A     39  38  97 NW10      29.83R WCI  32          
CAPROCK CYN SP   N/A     37  35  93 NW12      29.90F WCI  29          
CHILDRESS 2NNE LGT RAIN  42  40  93 W13       29.86R                  
CLARENDON 2WSW LGT RAIN  36  33  87 NW21G30   29.86R WCI  25          
CLAUDE 12SW      N/A     32  32  99 NW16      29.90S WCI  21          
DIMMITT 2NE      N/A     32  32  99 NW29      29.94R WCI  18          
FLOYDADA 2NNE    N/A     35  34  95 NW20G30   29.88F WCI  24          
FRIONA 2NE       N/A     32  32  99 NW20      29.98R WCI  20          
GOODLETT 3W      N/A     45  42  88 W15       29.84R                  
HART 3N          N/A     33  32  96 NW21      29.93S WCI  21          
HEREFORD 2NW     N/A     32  32  99 NW21      29.96R WCI  20          
MEMPHIS 1NE      N/A     40  37  89 W9        29.87R WCI  34          
MULESHOE 2SSW    N/A     34  32  94 NW18G28   29.98R WCI  23          
OLTON 6S         N/A     35  32  90 NW25      29.92S WCI  22          
PALO DURO SP     N/A     33  31  95 NW18      29.92F WCI  21          
PAMPA 2E         N/A     33  32  99 NW18      29.87R WCI  21          
PLAINVIEW 1S     N/A     35  34  95 NW17      29.90F WCI  25          
SILVERTON 7ESE   N/A     35  33  94 NW18      29.90F WCI  24          
TULIA 2ENE       N/A     33  33  99 NW17      29.92R WCI  22          
TURKEY 2WSW    LGT RAIN  38  37  96 NW18      29.89S WCI  28          
UMBARGER 3NNE    N/A     32  32  97 NW24      29.93F WCI  19          
$$

TXZ033>036-039>041-045>048-300400
TEXAS TECH WEST TEXAS MESONET/SOUTH PLAINS  
  
CITY           SKY/WX    TMP DP  RH WIND       PRES   REMARKS
AIKEN 3WSW       N/A     35  34  95 NW22      29.91S WCI  24          
ANDREWS 2NE      N/A     42  34  72 NW18      30.01R                  
ANTON 6SSW       N/A     35  33  92 NW20      29.95R WCI  24          
BROWNFIELD 2S    N/A     38  33  82 NW21      29.98R WCI  28          
DENVR CTY 7WNW   N/A     37  31  79 NW20      30.03R WCI  27          
GAIL 2ESE        N/A     42  36  80 NW16      29.93R                  
LAMESA 2SE       N/A     40  36  84 NW21      29.99R WCI  31          
LEVELLAND 4S     N/A     35  31  88 NW16      29.97R WCI  25          
LUBBOCK 3WNW     N/A     37  35  92 NW15      29.93S WCI  28          
MORTON 1ENE      N/A     35  32  88 NW18      29.99R WCI  25          
ODONNELL 1N      N/A     38  34  84 NW18      29.96R WCI  29          
PLAINS 3N        N/A     37  33  86 NW20      30.02R WCI  26          
RALLS 1SE        N/A     37  33  83 NW17      29.90R WCI  28          
REESE CENTER     N/A     35  32  90 NW21      29.94R WCI  24          
SEAGRAVES 1SW    N/A     38  34  84 NW21      30.01R WCI  28          
SEMINOLE 2NNE    N/A     40  33  76 NW20      30.02R WCI  30          
SLATON 2NE       N/A     37  34  89 NW16      29.92R WCI  28          
SNYDER 3E        N/A     42  39  89 NW21      29.91R                  
SUNDOWN 8SW      N/A     36  33  87 NW18      30.00R WCI  26          
TAHOKA 3NNE      N/A     38  34  86 NW20      29.94R WCI  28          
WOLFFORTH 6SSW   N/A     37  33  87 NW22      29.95R WCI  26          
$$

TXZ031-032-036>038-042>044-300400-
TEXAS TECH WEST TEXAS MESONET/ROLLING PLAINS 
  
CITY           SKY/WX    TMP DP  RH WIND       PRES   REMARKS
ASPERMONT 3NE    N/A     46  43  90 NW12      29.87S                  
FLUVANNA 3WNW    N/A     41  37  84 NW17      29.91R                  
GRAHAM 5SSW      N/A     38  34  83 NW21      29.92R WCI  28          
GUTHRIE 10WSW    N/A     42  38  86 NW16      29.86F                  
HASKELL 1NW      N/A     47  41  80 NW16      29.85R                  
JAYTON 1SSE      N/A     42  38  86 NW16      29.88S                  
KNOX CITY 3NW    N/A     46  42  85 NW14      29.85F                  
LK A HENRY 1NW   N/A     42  36  79 NW13      29.91R                  
NORTHFIELD 1S    N/A     39  37  91 NW21G31   29.88R WCI  29          
ODELL 4ENE       N/A     48  44  84 NW9       29.81F                  
PADUCAH 10SW     N/A     40  38  91 NW18      29.86R WCI  31          
POST 1NE         N/A     40  34  80 NW14G23   29.92R WCI  32          
RRING SPRGS 3N   N/A     38  37  96 NW16      29.87R WCI  29          
SEYMOUR 3NW      N/A     50  41  69 NW9       29.85R                  
SPUR 1W          N/A     41  36  83 NW15      29.87F                  
WEINERT 2NNE     N/A     47  41  81 NW16      29.85R                  
WHITE RVR 6NE    N/A     38  34  83 NW22      29.87F WCI  28          
$$

TXZ052-054-060>062-072-078-127-140-154-169-300400-
TEXAS TECH WEST TEXAS MESONET/PERMIAN BASIN/
CONCHO VALLEY/BIG COUNTRY/EDWARDS PLATEAU
  
CITY           SKY/WX    TMP DP  RH WIND       PRES   REMARKS
COYANOSA 2N      N/A     48  35  61 NW9       30.04R                  
JUNCTION 1SSW    N/A     63  34  34 W9G22     29.88R                  
MERTZON 3NNE     N/A     56  38  50 W17       29.90R                  
SAN ANGELO 7NW   N/A     56  37  47 W14       29.88R                  
STRLNG CT 4WSW   N/A     51  42  71 W14       29.93R                  
ST LAWRNCE 5SW   N/A     49  40  70 NW24      29.93F                  
SWEETWATR 11SW   N/A     48  46  91 W10       29.88R                  
WALL 1E          N/A     58  36  42 W20       29.89R                  
$$

TXZ055-058-074-075-080-082-300400-
TEXAS TECH WEST TEXAS MESONET/FAR WEST/SOUTHWEST MOUNTAINS/TRANS PECOS
  
CITY           SKY/WX    TMP DP  RH WIND       PRES   REMARKS
PRSMN GAP BBNP   N/A     62  25  24 N10       29.94R                  
GUADLPE MTN NP   N/A     37  31  78 NE2       30.03R                  
$$
  

Return to Home page


Western Regional Climate Center, wrcc@dri.edu